EVA11 KLAX-RCTP

Flight info

Callsign EVA11
Flight time N/A
Altitude 28000
Route SUMMR2 MCKEY DCT LIBBO DCT BRINY DCT ALCOA DCT DACEM DCT GAPNE DCT 48N140W/N0501F300 51N150W 54N160W 56N170W DCT EDWAL/N0492F320 DCT NIKLL R220 NUZAN/N0493F330 R220 NUBDA/N0491F340 R220 IXE Y88 SWING Y121 LABEL Y50 IGMON A1 DRAKE DRAKE1A
Aircraft B77W/H-SDE1E2E3FGHIJ2J3J4J5M1RWXY/LB1D1

Departure

Time 2026-04-26 07:02
Airport Los Angeles International Airport (KLAX)

Arrival

Time N/A
Airport Taiwan Taoyuan International Airport (RCTP)
Time Latitude Longitude Altitude Speed Heading
2026-04-26 06:31 33.94395 -118.41134 97 ft 0 kts 85°
2026-04-26 06:48 33.94394 -118.41144 99 ft 4 kts 84°
2026-04-26 06:48 33.94391 -118.41177 97 ft 4 kts 83°
2026-04-26 06:48 33.94389 -118.41205 95 ft 4 kts 82°
2026-04-26 06:49 33.94379 -118.41230 99 ft 4 kts 23°
2026-04-26 06:49 33.94354 -118.41234 96 ft 4 kts 354°
2026-04-26 06:49 33.94339 -118.41232 97 ft 1 kts 353°
2026-04-26 06:49 33.94337 -118.41231 97 ft 0 kts 353°
2026-04-26 06:53 33.94371 -118.41237 99 ft 8 kts 352°
2026-04-26 06:53 33.94433 -118.41246 98 ft 9 kts 352°
2026-04-26 06:54 33.94495 -118.41256 98 ft 9 kts 354°
2026-04-26 06:54 33.94556 -118.41263 100 ft 9 kts 353°
2026-04-26 06:54 33.94618 -118.41274 100 ft 9 kts 352°
2026-04-26 06:54 33.94681 -118.41283 98 ft 9 kts 353°
2026-04-26 06:55 33.94743 -118.41291 100 ft 9 kts 353°
2026-04-26 06:55 33.94779 -118.41286 99 ft 4 kts 28°
2026-04-26 06:55 33.94792 -118.41258 102 ft 4 kts 74°
2026-04-26 06:55 33.94800 -118.41211 102 ft 7 kts 79°
2026-04-26 06:56 33.94808 -118.41143 101 ft 9 kts 82°
2026-04-26 06:56 33.94816 -118.41065 102 ft 9 kts 83°
2026-04-26 06:56 33.94822 -118.40989 100 ft 9 kts 84°
2026-04-26 06:56 33.94830 -118.40914 102 ft 9 kts 83°
2026-04-26 06:57 33.94839 -118.40838 99 ft 9 kts 82°
2026-04-26 06:57 33.94846 -118.40763 100 ft 9 kts 82°
2026-04-26 06:57 33.94854 -118.40687 99 ft 9 kts 83°
2026-04-26 06:57 33.94863 -118.40612 102 ft 9 kts 83°
2026-04-26 06:58 33.94870 -118.40536 99 ft 10 kts 83°
2026-04-26 06:58 33.94879 -118.40442 101 ft 12 kts 83°
2026-04-26 06:58 33.94889 -118.40344 101 ft 12 kts 83°
2026-04-26 06:58 33.94899 -118.40244 101 ft 12 kts 84°
2026-04-26 06:59 33.94908 -118.40145 99 ft 12 kts 83°
2026-04-26 06:59 33.94919 -118.40046 100 ft 11 kts 82°
2026-04-26 06:59 33.94926 -118.39985 98 ft 7 kts 82°
2026-04-26 06:59 33.94940 -118.39939 100 ft 6 kts 53°
2026-04-26 07:00 33.94974 -118.39918 98 ft 6 kts 12°
2026-04-26 07:00 33.95013 -118.39920 99 ft 6 kts 348°
2026-04-26 07:00 33.95039 -118.39950 100 ft 6 kts 281°
2026-04-26 07:00 33.95036 -118.39997 102 ft 6 kts 264°
2026-04-26 07:01 33.95026 -118.40098 100 ft 21 kts 262°
2026-04-26 07:01 33.94997 -118.40392 102 ft 65 kts 263°
2026-04-26 07:01 33.94908 -118.41262 103 ft 143 kts 263°
2026-04-26 07:01 33.94749 -118.42753 162 ft 208 kts 263°
2026-04-26 07:02 33.94527 -118.44496 1085 ft 215 kts 259°
2026-04-26 07:02 33.94336 -118.46295 2087 ft 213 kts 264°
2026-04-26 07:02 33.94222 -118.48088 2416 ft 212 kts 270°
2026-04-26 07:02 33.94208 -118.49895 2732 ft 219 kts 269°
2026-04-26 07:03 33.94177 -118.51760 3093 ft 227 kts 266°
2026-04-26 07:03 33.94031 -118.53687 3541 ft 235 kts 264°
2026-04-26 07:03 33.93865 -118.55664 4062 ft 240 kts 264°
2026-04-26 07:03 33.93696 -118.57722 4424 ft 253 kts 264°
2026-04-26 07:04 33.93528 -118.59827 4993 ft 258 kts 264°
2026-04-26 07:04 33.93354 -118.62018 5627 ft 261 kts 264°
2026-04-26 07:04 33.93183 -118.64184 6275 ft 264 kts 264°
2026-04-26 07:04 33.93010 -118.66392 6923 ft 265 kts 263°
2026-04-26 07:05 33.92837 -118.68620 7514 ft 269 kts 264°
2026-04-26 07:05 33.92664 -118.70861 8175 ft 269 kts 264°
2026-04-26 07:05 33.92489 -118.73116 8808 ft 271 kts 264°
2026-04-26 07:05 33.92312 -118.75389 9401 ft 274 kts 264°
2026-04-26 07:06 33.92133 -118.77681 10023 ft 276 kts 264°
2026-04-26 07:06 33.91949 -118.80013 10376 ft 288 kts 263°
2026-04-26 07:06 33.91757 -118.82488 10508 ft 306 kts 264°
2026-04-26 07:06 33.91694 -118.85125 10655 ft 325 kts 270°
2026-04-26 07:07 33.91784 -118.87928 10905 ft 341 kts 271°
2026-04-26 07:07 33.91901 -118.90819 11368 ft 350 kts 271°
2026-04-26 07:07 33.92003 -118.93731 11957 ft 354 kts 271°
2026-04-26 07:07 33.92094 -118.96700 12640 ft 357 kts 271°
2026-04-26 07:08 33.92339 -118.99680 13224 ft 361 kts 281°
2026-04-26 07:08 33.93020 -119.02511 13824 ft 367 kts 288°
2026-04-26 07:08 33.93982 -119.05157 14416 ft 370 kts 296°
2026-04-26 07:08 33.95339 -119.07797 15091 ft 371 kts 300°
2026-04-26 07:09 33.96739 -119.10421 15733 ft 373 kts 299°
2026-04-26 07:09 33.98127 -119.13073 16361 ft 375 kts 299°
2026-04-26 07:09 33.99547 -119.15730 16973 ft 379 kts 302°
2026-04-26 07:09 34.01240 -119.18183 17588 ft 384 kts 309°
2026-04-26 07:10 34.07538 -119.24370 19150 ft 400 kts 320°
2026-04-26 07:11 34.12114 -119.28233 20250 ft 402 kts 320°
2026-04-26 07:11 34.14412 -119.30188 20720 ft 406 kts 320°
2026-04-26 07:11 34.16725 -119.32168 21172 ft 409 kts 320°
2026-04-26 07:11 34.19052 -119.34170 21656 ft 412 kts 319°
2026-04-26 07:12 34.21396 -119.36190 22159 ft 415 kts 320°
2026-04-26 07:12 34.23754 -119.38223 22619 ft 418 kts 320°
2026-04-26 07:12 34.26125 -119.40273 23085 ft 420 kts 320°
2026-04-26 07:12 34.28512 -119.42337 23537 ft 423 kts 319°
2026-04-26 07:13 34.30911 -119.44412 23915 ft 426 kts 319°
2026-04-26 07:13 34.33328 -119.46504 24284 ft 428 kts 319°
2026-04-26 07:13 34.35755 -119.48606 24658 ft 430 kts 319°
2026-04-26 07:13 34.38166 -119.50696 25016 ft 433 kts 319°
2026-04-26 07:14 34.40533 -119.52945 25355 ft 432 kts 314°
2026-04-26 07:14 34.42717 -119.55454 25667 ft 432 kts 309°
2026-04-26 07:14 34.44686 -119.58196 26057 ft 431 kts 306°
2026-04-26 07:14 34.46626 -119.60979 26439 ft 433 kts 306°
2026-04-26 07:15 34.48568 -119.63771 26754 ft 435 kts 306°
2026-04-26 07:15 34.50531 -119.66581 27085 ft 438 kts 306°
2026-04-26 07:15 34.51840 -119.68447 27289 ft 440 kts 306°
2026-04-26 07:15 34.54505 -119.72243 27718 ft 443 kts 306°
2026-04-26 07:16 34.55830 -119.74133 27872 ft 445 kts 306°
2026-04-26 07:16 34.57845 -119.77008 27928 ft 450 kts 306°
2026-04-26 07:16 34.59881 -119.79913 27995 ft 455 kts 306°
2026-04-26 07:16 34.61946 -119.82862 28102 ft 460 kts 306°
2026-04-26 07:17 34.64700 -119.86794 28429 ft 462 kts 306°
2026-04-26 07:17 34.66105 -119.88798 28684 ft 461 kts 306°
2026-04-26 07:17 34.68178 -119.91757 29104 ft 459 kts 306°
2026-04-26 07:17 34.70238 -119.94700 29532 ft 457 kts 306°
2026-04-26 07:18 34.72269 -119.97608 29891 ft 456 kts 307°
2026-04-26 07:18 34.76331 -120.03436 29996 ft 462 kts 307°
2026-04-26 07:19 34.80486 -120.09404 30006 ft 460 kts 307°
2026-04-26 07:19 34.84615 -120.15344 29982 ft 458 kts 307°
2026-04-26 07:20 34.88718 -120.21258 30014 ft 456 kts 307°
2026-04-26 07:20 34.92818 -120.27181 30008 ft 458 kts 307°
2026-04-26 07:21 34.96944 -120.33148 29999 ft 461 kts 307°
2026-04-26 07:21 35.01085 -120.39146 30000 ft 463 kts 307°
2026-04-26 07:22 35.05209 -120.45132 29996 ft 464 kts 308°
2026-04-26 07:22 35.09372 -120.51183 29997 ft 466 kts 308°
2026-04-26 07:23 35.13539 -120.57251 30001 ft 466 kts 308°
2026-04-26 07:23 35.17708 -120.63333 29984 ft 466 kts 308°
2026-04-26 07:24 35.21872 -120.69419 29987 ft 467 kts 308°
2026-04-26 07:24 35.26040 -120.75521 29986 ft 467 kts 308°
2026-04-26 07:25 35.30205 -120.81629 29979 ft 468 kts 308°
2026-04-26 07:25 35.34377 -120.87759 29966 ft 468 kts 308°
2026-04-26 07:26 35.38520 -120.93858 29980 ft 469 kts 309°
2026-04-26 07:26 35.42691 -121.00009 29984 ft 469 kts 309°
2026-04-26 07:27 35.46812 -121.06095 29980 ft 470 kts 309°
2026-04-26 07:27 35.51017 -121.12254 29969 ft 471 kts 310°
2026-04-26 07:28 35.55284 -121.18365 29981 ft 471 kts 310°
2026-04-26 07:28 35.59552 -121.24482 29941 ft 472 kts 310°
2026-04-26 07:29 35.63814 -121.30622 29956 ft 472 kts 310°
2026-04-26 07:29 35.68064 -121.36769 29984 ft 472 kts 310°
2026-04-26 07:30 35.72323 -121.42937 29963 ft 472 kts 310°
2026-04-26 07:30 35.76543 -121.49060 29968 ft 472 kts 310°
2026-04-26 07:31 35.80795 -121.55241 29956 ft 472 kts 310°
2026-04-26 07:31 35.85035 -121.61415 29968 ft 472 kts 310°
2026-04-26 07:32 35.89276 -121.67602 29973 ft 472 kts 310°
2026-04-26 07:32 35.93512 -121.73792 29972 ft 472 kts 310°
2026-04-26 07:33 35.97809 -121.79924 29942 ft 472 kts 316°
2026-04-26 07:33 36.02908 -121.84989 29964 ft 472 kts 327°
2026-04-26 07:34 36.08668 -121.88858 29979 ft 472 kts 333°
2026-04-26 07:34 36.14523 -121.92438 29976 ft 473 kts 333°
2026-04-26 07:35 36.20419 -121.96075 29974 ft 473 kts 333°
2026-04-26 07:35 36.26304 -121.99753 29975 ft 474 kts 333°
2026-04-26 07:36 36.32096 -122.03394 29977 ft 474 kts 333°
2026-04-26 07:36 36.37976 -122.07099 29981 ft 474 kts 333°
2026-04-26 07:37 36.43858 -122.10808 29974 ft 474 kts 332°
2026-04-26 07:37 36.49739 -122.14524 29986 ft 474 kts 332°
2026-04-26 07:38 36.55623 -122.18248 29974 ft 475 kts 332°
2026-04-26 07:38 36.61474 -122.21956 29978 ft 475 kts 332°
2026-04-26 07:39 36.67373 -122.25701 29978 ft 476 kts 332°
2026-04-26 07:39 36.73282 -122.29460 29964 ft 477 kts 332°
2026-04-26 07:40 36.79196 -122.33228 29968 ft 477 kts 332°
2026-04-26 07:40 36.85113 -122.37004 29952 ft 478 kts 332°
2026-04-26 07:41 36.91042 -122.40795 29962 ft 479 kts 332°
2026-04-26 07:41 36.96981 -122.44600 29943 ft 480 kts 332°
2026-04-26 07:42 37.02916 -122.48408 29938 ft 481 kts 332°
2026-04-26 07:42 37.08868 -122.52234 29930 ft 481 kts 332°
2026-04-26 07:43 37.14820 -122.56067 29934 ft 481 kts 332°
2026-04-26 07:43 37.20772 -122.59907 29940 ft 480 kts 332°
2026-04-26 07:44 37.26629 -122.63771 29903 ft 475 kts 326°
2026-04-26 07:44 37.29100 -122.66461 29949 ft 470 kts 309°
2026-04-26 07:44 37.30917 -122.69862 29943 ft 470 kts 296°
2026-04-26 07:44 37.32052 -122.73703 29938 ft 468 kts 283°
2026-04-26 07:45 37.32754 -122.77691 29956 ft 469 kts 282°
2026-04-26 07:45 37.34096 -122.85748 29935 ft 472 kts 282°
2026-04-26 07:46 37.35479 -122.93849 29919 ft 475 kts 283°
2026-04-26 07:46 37.36884 -123.01838 29924 ft 476 kts 283°
2026-04-26 07:47 37.38329 -123.09977 29926 ft 476 kts 283°
2026-04-26 07:47 37.39767 -123.18104 29908 ft 475 kts 283°
2026-04-26 07:48 37.41196 -123.26222 29921 ft 474 kts 283°
2026-04-26 07:48 37.42603 -123.34255 29923 ft 473 kts 283°
2026-04-26 07:49 37.44013 -123.42343 29918 ft 473 kts 283°
2026-04-26 07:49 37.45418 -123.50438 29928 ft 472 kts 283°
2026-04-26 07:50 37.47513 -123.62568 29932 ft 473 kts 283°
2026-04-26 07:50 37.48894 -123.70611 29913 ft 473 kts 283°
2026-04-26 07:51 37.50281 -123.78718 29927 ft 473 kts 283°
2026-04-26 07:51 37.51662 -123.86828 29927 ft 474 kts 283°
2026-04-26 07:52 37.53038 -123.94946 29930 ft 474 kts 283°
2026-04-26 07:52 37.54390 -124.02962 29935 ft 474 kts 283°
2026-04-26 07:53 37.55758 -124.11102 29935 ft 475 kts 283°
2026-04-26 07:53 37.57120 -124.19242 29935 ft 475 kts 283°
2026-04-26 07:54 37.58469 -124.27341 29932 ft 475 kts 283°
2026-04-26 07:54 37.59821 -124.35500 29943 ft 475 kts 283°
2026-04-26 07:55 37.61170 -124.43670 29945 ft 476 kts 283°
2026-04-26 07:55 37.62512 -124.51843 29938 ft 476 kts 283°